{"data":{"norad_id":66250,"intl_designator":"2025-245S","name":"STARLINK-35338","alt_names":[],"object_type":"PAYLOAD","status":"ACTIVE","operator":null,"country":"US","launch_date":"2025-10-29","launch_site_code":"AFETR","launch_vehicle":null,"mission":null,"orbit_class":"UNKNOWN","rcs_meters":null,"size_class":null,"mass_kg":null,"dimensions":null,"purposes":["comms"],"wikipedia_slug":null,"has_3d_model":false,"image_url":null,"decayed_at":null,"tle_current":{"epoch":"2026-09-20T22:42:07.626240Z","epoch_age_seconds":58194,"freshness":"FRESH","line1":"1 66250U 25245S   26263.94592160  .00021029  00000+0  68663-3 0  9997","line2":"2 66250  53.1581  95.3501 0001373  86.0299 274.0860 15.31740381 51078","mean_motion":15.31740381,"eccentricity":0.0001373,"inclination_deg":53.1581,"raan_deg":95.3501,"arg_perigee_deg":86.0299,"mean_anomaly_deg":274.086,"bstar":0.00068663,"rev_number":5107,"period_min":94.010709508089,"perigee_km":469.6792899259,"apogee_km":471.55995849491,"semimajor_km":6848.7566242104,"source":"CELESTRAK","updated_at":"2026-09-21T09:00:35.849126Z"}}}